Voltar ao catálogo

INMARSAT 2-F2 R/B

PAM-D

AtivoHEO
NORAD 21151·ROCKET BODY·🇺🇸 United States

Lançado Mar 8, 1991 de Cape Canaveral Space Force Station

Loading…

Próximas Passagens (próximas 24 horas)

TLE

AtualizadoSource: Space-Track

Época: Sep 14, 2026, 13:45 UTC

1 21151U 91018C   26257.57307086  .00012412  00000-0  81317-3 0  9990
2 21151  23.1932  86.4390 3875768  15.6334 353.6096  7.65862552746047

Acompanhe INMARSAT 2-F2 R/B em tempo real com AllMySat

Download on the App Store